Back to catalog

STARLINK-31760

AliveCommunicationsVLEO
NORAD 59869·PAYLOAD·🇺🇸 United States

Launched May 24, 2024 from Cape Canaveral Space Force Station

Loading…

Next Passes (next 24 hours)

TLE

FreshSource: CelesTrak SupGP

Epoch: Sep 14, 2026, 14:44 UTC

1 59869C 24098M   26257.61437500  .00044418  00000+0  16088-2 0  2570
2 59869  42.9998 291.3276 0001533 276.7208 186.4402 15.27556349    17

Track STARLINK-31760 in real time with AllMySat

Download on the App Store